{"data":{"norad_id":64719,"intl_designator":"2025-142Z","name":"STARLINK-34577","alt_names":[],"object_type":"PAYLOAD","status":"ACTIVE","operator":null,"country":"US","launch_date":"2025-06-28","launch_site_code":"AFWTR","launch_vehicle":null,"mission":null,"orbit_class":"UNKNOWN","rcs_meters":null,"size_class":null,"mass_kg":null,"dimensions":null,"purposes":["comms"],"wikipedia_slug":null,"has_3d_model":false,"image_url":null,"decayed_at":null,"tle_current":{"epoch":"2026-05-25T05:24:24.884064Z","epoch_age_seconds":66317,"freshness":"FRESH","line1":"1 64719U 25142Z   26145.22528801  .00002344  00000+0  20416-3 0  9995","line2":"2 64719  70.0001 121.5052 0004037 264.6014  95.4685 14.98335601 50956","mean_motion":14.98335601,"eccentricity":0.0004037,"inclination_deg":70.0001,"raan_deg":121.5052,"arg_perigee_deg":264.6014,"mean_anomaly_deg":95.4685,"bstar":0.00020416,"rev_number":5095,"period_min":96.106639863521,"perigee_km":569.23278449014,"apogee_km":574.84435624566,"semimajor_km":6950.1755703679,"source":"CELESTRAK","updated_at":"2026-05-25T13:38:20.517745Z"}}}